Regional Weather Roundup
Issued by NWS

Home | Current Version | Previous Version | Text Only | Print | Product List | Glossary Off
Versions: 1 2 3 4 5 6 7 8 9 10 11 12 13 14 15 16 17 18 19 20 21 22 23 24 25 26 27 28 29 30 31 32 33 34 35 36 37 38 39 40 41 42 43 44 45 46 47 48 49 50

000
ASUS43 KLOT 020708
RWRIL

ILLINOIS REGIONAL WEATHER ROUNDUP
NATIONAL WEATHER SERVICE CHICAGO/ROMEOVILLE IL
200 AM CDT WED SEP 02 2015

NOTE: "FAIR" INDICATES FEW OR NO CLOUDS BELOW 12,000 FEET WITH NO
SIGNIFICANT WEATHER AND/OR OBSTRUCTIONS TO VISIBILITY.

* THESE STATIONS ARE NOT UNDER NWS QUALITY CONTROL. THEY ALSO MAY NOT
  REPORT WEATHER SUCH AS PRECIPITATION OR FOG.

ILZ001-002-007-009-015-016-024-020800-
NORTHWEST ILLINOIS

CITY           SKY/WX    TMP DP  RH WIND       PRES   REMARKS
MOLINE         PTCLDY    73  67  81 CALM      30.01F
STERLING*      PTCLDY   N/A N/A N/A CALM      30.00F
SAVANNA*       PTCLDY    70  68  92 CALM      30.01S
$$

ILZ003-004-008-010-011-017-018-020800-
NORTH CENTRAL ILLINOIS

CITY           SKY/WX    TMP DP  RH WIND       PRES   REMARKS
ROCKFORD       MOCLDY    72  67  84 CALM      30.03F
FREEPORT*      PTCLDY    72  68  88 SW6       30.03F
ROCHELLE*      CLEAR     68  67  97 CALM      30.04S FOG
DE KALB*       CLEAR     70  69  95 SW7       30.04F FOG
PERU*          CLEAR     71  67  88 S7        30.05S
$$

ILZ005-006-012>014-019>023-020800-
NORTHEAST ILLINOIS

CITY           SKY/WX    TMP DP  RH WIND       PRES   REMARKS
CHICAGO-OHARE  PTCLDY    75  69  81 SW7       30.02F
CHICAGO-MIDWAY PTCLDY    76  68  76 SW8       30.02F
AURORA         CLEAR     72  68  87 SW6       30.04F
LANSING*       CLEAR     71  67  87 SW5       30.04F
JOLIET*        CLEAR     72  69  92 CALM      30.04S
WAUKEGAN       MOCLDY    75  70  84 SW7       30.00F
DUPAGE AIRPORT CLEAR     73  68  84 SW7       30.03F
KANKAKEE*      CLEAR     69  67  94 SW5       30.06S
WHEELING       PTCLDY    76  69  79 SW5       30.03F
MORRIS*        CLEAR     71  67  89 SW3       30.04S
ROMEOVILLE*    CLEAR     69  67  93 SW6       30.04F
NORTHERLY ISL    N/A     77  67  71 S8          N/A
$$

LMZ740>746-020800-
SOUTHERN LAKE MICHIGAN

STATION/POSITION SKY/WX   TEMP    WIND        PRES    VSBY  WAVE
                          AIR SEA DIR/SP/G                  HT/PER
                          (F)     (DEG/KT/KT) (MB)    (MI)  (FT/S)
SOUTHERN BUOY              72 70  190/ 10/ 10 1015.6F
WILMETTE HARBOR            69 60   30/  6/  6   N/A           1
HARRISON CRIB              76     220/  8/ 14   N/A
BURNHAM HARBOR             77     240/  8/ 12   N/A
CALUMET HARBOR             76     210/  5/  8   N/A
BURNS HARBOR               76     210/ 10/ 12 1017.6F
MICHIGAN CITY              76     180/  9/ 10   N/A
MICHIGAN CITY 6N           74 72  220/  8/ 10   N/A           1/ 3
ST. JOSEPH                 74 73  230/  6/  8   N/A           1/ 3
$$

ILZ025>027-034>036-040-047-049-050-058-095>099-020800-
WEST-CENTRAL ILLINOIS

CITY           SKY/WX    TMP DP  RH WIND       PRES   REMARKS
QUINCY         CLEAR     74  69  85 S5        30.04F
GALESBURG*     PTCLDY    69  68  94 CALM      30.04F
MACOMB*        CLEAR     73  69  86 SW5       30.05F
JACKSONVILLE*  CLEAR     76  71  84 S6        30.05F
PITTSFIELD*    CLEAR     73  69  88 CALM      30.06F
$$

ILZ028>032-037-038-041>044-048-051>054-059>061-020800-
CENTRAL ILLINOIS

CITY           SKY/WX    TMP DP  RH WIND       PRES   REMARKS
PONTIAC        CLEAR     74  71  90 SW6       30.06S
BLOOMINGTON    CLEAR     73  71  93 SW7       30.08F
DECATUR        CLEAR     75  68  78 SW7       30.07F
PEORIA         CLEAR     75  68  78 S5        30.05F
LACON*         CLEAR     73  68  85 SE3       30.03F
LINCOLN*       CLEAR     72  68  88 CALM      30.05F
SPRINGFIELD    CLEAR     75  70  84 S8        30.06F
TAYLORVILLE    CLEAR     72  68  88 S7        30.07F
$$

ILZ033-039-045-046-055>057-062-063-020800-
EAST-CENTRAL ILLINOIS

CITY           SKY/WX    TMP DP  RH WIND       PRES   REMARKS
CHAMPAIGN      CLEAR     71  69  93 SW5       30.08F
RANTOUL*       CLEAR     72  70  93 SW3       30.07F
MATTOON        HAZE      72  67  84 S6        30.07F VSB 3/4
PARIS*         CLEAR     67  66  96 S3        30.09F
$$

ILZ079-100>102-020800-
SOUTHWEST ILLINOIS

CITY           SKY/WX    TMP DP  RH WIND       PRES   REMARKS
ALTON          CLEAR     71  69  90 SE3       30.07F
BELLEVILLE     CLEAR     71  71 100 CALM      30.06F FOG
CAHOKIA*       CLEAR     72  68  87 CALM      30.06F
SPARTA*        CLEAR     69  68  98 CALM      30.09S
$$

ILZ064>066-069>071-074>076-080>082-084>086-088>090-092>094-020800-
SOUTH-CENTRAL ILLINOIS

CITY           SKY/WX    TMP DP  RH WIND       PRES   REMARKS
CARBONDALE     CLEAR     69  67  93 CALM      30.08S FOG
CAIRO*         MOCLDY    69  69 100 CALM      30.08S FOG
EFFINGHAM*     CLEAR     68  65  90 CALM      30.09F
MARION         PTCLDY    72  72 100 CALM      30.09F FOG
MT. VERNON     CLEAR     68  63  83 CALM      30.09F
CENTRALIA*     CLEAR     71  70  95 CALM      30.08S
SALEM*         CLEAR     72  69  89 S3        30.08F
METROPOLIS*    MOCLDY    68  68 100 CALM      30.09S FOG
$$

ILZ067-068-072-073-078-083-087-091-020800-
SOUTHEAST ILLINOIS

CITY           SKY/WX    TMP DP  RH WIND       PRES   REMARKS
LAWRENCEVILLE  CLEAR     68  67  96 CALM      30.09F FOG
FLORA*         CLEAR     68  66  93 CALM      30.09S
FAIRFIELD*     CLEAR     68  68  98 CALM      30.07F FOG
HARRISBURG*    CLEAR     67  66  98 CALM      30.09F
ROBINSON*      CLEAR     66  65  97 CALM      30.09F FOG
CARMI*         CLEAR     67  67  99 CALM      30.08F FOG
$$

ABBREVIATIONS USED IN REMARKS
   TC - TEMPERATURE IN CELSIUS
  WCI - WIND CHILL INDEX
   HX - HEAT INDEX
  VSB - VISIBILITY
$$



USA.gov is the U.S. government's official web portal to all federal, state and local government web resources and services.